Weather Roundup
Issued by NWS

Home | Current Version | Previous Version | Text Only | Print | Product List | Glossary On
Versions: 1 2 3 4 5 6 7 8 9 10 11 12 13 14 15 16 17 18 19 20 21 22 23 24 25 26 27 28 29 30 31 32 33 34 35 36 37 38 39 40 41 42 43 44 45 46 47 48 49 50
000
NZUS93 KARX 251410
HRRWXR

CURRENT HOURLY OBSERVATIONS ACROSS
MUCH OF THE UPPER MISSISSIPPI VALLEY
NATIONAL WEATHER SERVICE LA CROSSE WI
900 AM CDT TUE APR 25 2017


...SOUTHEAST MINNESOTA...


CITY           SKY/WX    TMP DP  RH WIND       PRES   REMARKS
ROCHESTER      SUNNY     60  39  45 S13       29.55R
ROCHESTER/MAYO FAIR      61  38  41 SE8       29.54R
WINONA         SUNNY     63  36  36 SE6       29.55R
AUSTIN         CLOUDY    59  39  47 S10       29.53S
ALBERT LEA     CLOUDY    52  43  71 NW3       29.54R
DODGE CENTER   MOSUNNY   61  39  44 S14       29.53R
PRESTON        SUNNY     59  37  43 S12G18    29.57R
OWATONNA       CLOUDY    50  43  76 W7        29.55R
FARIBAULT      PTSUNNY   46  43  87 SW5       29.55R
$$

...ELSEWHERE IN MINNESOTA...


CITY           SKY/WX    TMP DP  RH WIND       PRES   REMARKS
MINNEAPOLIS    PTSUNNY   53  45  74 SW8       29.52S
INTNL FALLS    CLOUDY    34  31  88 N13       29.70R WCI  25
DULUTH         CLOUDY    44  41  89 E12       29.58S
RED WING       PTSUNNY   63  34  34 S5        29.52S
REDWOOD FALLS  CLOUDY    40  37  89 NW16      29.57R WCI  31
MANKATO        CLOUDY    41  39  93 NW10      29.57R FOG
WORTHINGTON    CLOUDY    38  37  97 N15       29.58S WCI  29
FAIRMONT       CLOUDY    41  39  93 NW12      29.57R FOG
$$

...SOUTHWEST WISCONSIN...


CITY           SKY/WX    TMP DP  RH WIND       PRES   REMARKS
LA CROSSE      SUNNY     64  38  38 S12       29.57R
PRAIRIE DU CHI SUNNY     61  37  40 SE5       29.59S
BOSCOBEL       MOSUNNY   64  38  38 S10       29.60S
LONE ROCK      SUNNY     63  41  44 E5        29.62S
PLATTEVILLE    MOSUNNY   63  41  45 S14       29.63R
FORT MC COY    SUNNY     64  38  38 S8        29.59R
CAMP DOUGLAS   MOSUNNY   63  41  45 SE12      29.58F
MAUSTON-NEW LI SUNNY     63  41  44 S10G16    29.59F
VIROQUA        FAIR      60  36  40 S13G18    29.59S
WIS DELLS      SUNNY     61  39  45 S14       29.62S
$$

...ELSEWHERE IN WISCONSIN...


CITY           SKY/WX    TMP DP  RH WIND       PRES   REMARKS
MILWAUKEE      MOSUNNY   60  49  66 S13       29.71F
MADISON        PTSUNNY   61  42  49 S15       29.63F
GREEN BAY      MOSUNNY   58  48  69 SE15      29.69F
EAU CLAIRE     MOSUNNY   63  34  33 S12       29.54F
BLACK RVR FLS  FAIR      64  33  31 S7        29.57F
MEDFORD        MOSUNNY   57  38  49 SE12G18   29.60S
WAUSAU         PTSUNNY   59  39  47 SE14      29.62F
WIS RAPIDS     SUNNY     62  40  44 S9        29.62
MARSHFIELD     PTSUNNY   59  38  45 SE12      29.59F
RICE LAKE      PTSUNNY   58  34  40 SE7       29.56R
$$

...NORTHEAST IOWA...


CITY           SKY/WX    TMP DP  RH WIND       PRES   REMARKS
WATERLOO       CLOUDY    60  39  45 S9        29.55S
DUBUQUE        SUNNY     61  41  47 S14       29.62R
DECORAH        PTSUNNY   61  39  44 S6G13     29.57R
MASON CITY     CLOUDY    58  41  53 S9        29.54S
CHARLES CITY   PTSUNNY   59  37  44 S12       29.55S
OELWEIN        MOSUNNY   61  41  48 S12G18    29.57F
$$

...ELSEWHERE IN IOWA...


CITY           SKY/WX    TMP DP  RH WIND       PRES   REMARKS
DES MOINES     CLOUDY    59  42  53 E8        29.49F
IOWA CITY      CLOUDY    60  44  55 SE5       29.61F
FORT DODGE     CLOUDY    52  41  66 N6        29.52F
MARSHALLTOWN   CLOUDY    58  41  53 S12       29.52F
CEDAR RAPIDS   CLOUDY    59  42  53 S9        29.58F
$$

...NORTHERN ILLINOIS...


CITY           SKY/WX    TMP DP  RH WIND       PRES   REMARKS
CHICAGO-OHARE  CLOUDY    64  51  62 S12       29.71S
CHICAGO-MIDWAY CLOUDY    64  52  64 S12       29.72F
MOLINE         MOSUNNY   65  43  44 SW10      29.62S
ROCKFORD       CLOUDY    64  45  49 S9        29.68S
PEORIA         SUNNY     63  48  58 S12       29.68S
$$

NOTE: "FAIR" INDICATES FEW OR NO CLOUDS BELOW 12,000 FEET WITH NO
SIGNIFICANT WEATHER AND/OR OBSTRUCTIONS TO VISIBILITY. WIND
SPEEDS ARE IN MILES-PER-HOUR.




USA.gov is the U.S. government's official web portal to all federal, state and local government web resources and services.